STARLINK-11734, 64329

Orbit data source: Space-Track

STARLINK-11734, 64329 is a payload satellite owned by SpaceX/Seattle (US) in LEO that was launched on Tue, 10 Jun 2025 UTC via an FALCON 9 launch vehicle from the Air Force Eastern Test Range (AFETR). Payload-class satellites include a variety of spacecraft equipped with specific instruments for various scientific and technological missions. These include communications satellites like Starlink; space stations such as the ISS; scientific satellites like the Hubble; Earth observation satellites from companies like Planet Labs, Umbra, and HawkEye 360; GPS; miniature CubeSats for education and research; and military/defense satellites.

Loading next visibility...
Identifier
64329, 2025-124N
Orbit
LEO
Country
Flag of USUS
Related business
Manufacturer
SpaceX/Seattle
Mission
Operational Commercial Communications
Bus & Motor
STARLINK V2M, Unknown motor
Mass
730 kg wet, ~700 kg dry
Launch date (UTC)
2025-06-10 (3 months ago)
Launch vehicle
FALCON 9
Launch site
Air Force Eastern Test Range (AFETR)
Object type
Payload
Rocket body
Debris
Shape & HBR
Box + 2 Pan, 14.5 m
Radar Cross Section
36.964 m², Large (>1 m²)

Expand to show TLE details & history
Last TLE update: 6 hours ago

TLE from 6 hours ago
0 STARLINK-11734
1 64329U 25124N   25242.90327823  .00222893  00000-0  16882-2 0  9990
2 64329  42.9978  98.7644 0002156 259.2125 100.8500 15.70926240 12837
Epoch: 2025-08-30T21:40Z
TLE epoch observation values (Epoch: 2025-08-30T21:40:43.239Z)
Latitude
Longitude
154.25334°
Altitude
356.293 km
Speed
7.697 km/s
True Right ascension
06h 35m 03s
True Declination
0° 00' 00"
Sunlit
Object was in daylight at epoch
Visualization orbit readout
Latitude
Unknown
Longitude
Unknown
Altitude
Unknown
Speed
Unknown
Apparent Right ascension
Unknown
Apparent Declination
Unknown
Sunlit
N/A
Visualization observer readout
Local Sidereal Time
19:09:36
Azimuth
Unknown
Elevation
Unknown
Doppler factor
Unknown
Orbital elements
Apogee altitude
359.683 km
Perigee altitude
356.778 km
Semi-major axis
6,736.368 km
Eccentricity
0.00022
Inclination
42.9978°
RAAN
98.7644°
Arg. of periapsis
259.2125°
True anomaly
100.87426°
Mean anomaly
100.85°
Eccentric anomaly
100.86213°
Mean motion
3.92559 °/min
Orbital period
91.71 mins
BSTAR
0.0016882
Loading maneuver chart data...
Computing Atmospheric mass density...
Loading historical data...
Loading historical data...
Loading historical data...
Loading historical data...
Loading historical data...
Loading historical data...
Loading historical data...

Documentation

Showing up to 5 results
|